Regional Weather Roundup
Issued by NWS Cleveland, OH

Home | Current Version | Previous Version | Text Only | Print | Product List | Glossary On
Versions: 1 2 3 4 5 6 7 8 9 10 11 12 13 14 15 16 17 18 19 20 21 22 23 24 25 26 27 28 29 30 31 32 33 34 35 36 37 38 39 40 41 42 43 44 45 46 47 48 49 50
000
ASUS41 KCLE 260100
RWRCLE
OHIO REGIONAL WEATHER ROUNDUP
NATIONAL WEATHER SERVICE WILMINGTON, OH
900 PM EDT MON SEP 25 2017

NOTE: "FAIR" INDICATES FEW OR NO CLOUDS BELOW 12,000 FEET WITH NO
SIGNIFICANT WEATHER AND/OR OBSTRUCTIONS TO VISIBILITY.

OHZ001>008-015>018-024>027-034-035-043-044-260200-
   NORTHWEST OHIO

CITY           SKY/WX    TMP DP  RH WIND       PRES   REMARKS
DEFIANCE       FAIR      72  64  76 CALM      29.97R
FINDLAY        MOCLDY    82  64  54 E7        29.97R
TOLEDO EXPRESS FAIR      76  66  71 E3        29.98R
TOLEDO EXEC    FAIR      76  66  71 E3        29.99R
LIMA           FAIR      77  62  59 S5        29.98S
$$

OHZ009>014-019>023-028>033-038-089-260200-
   NORTHEAST OHIO

CITY           SKY/WX    TMP DP  RH WIND       PRES   REMARKS
CLE-HOPKINS    MOCLDY    80  63  55 CALM      30.01S
CLE-LAKEFRONT  FAIR      74  67  78 CALM      29.98S
CUY CO. ARPT   MOCLDY    77  66  69 E6        30.01S
LORAIN-ELYRIA  FAIR      71  61  70 CALM      30.01R
ASHTABULA      FAIR      74  68  81 E5        30.03S
AKRON-CANTON   MOCLDY    78  59  51 S6        30.03S
WOOSTER        NOT AVBL
MANSFIELD      FAIR      76  64  66 SE3       30.03R
YOUNGSTOWN     MOCLDY    74  63  68 E5        30.03S
$$

OHZ042-051>053-060>062-070>072-077>081-260200-
  SOUTHWEST OHIO

CITY           SKY/WX    TMP DP  RH WIND       PRES   REMARKS
CINC-COVINGTON FAIR      77  66  68 SE3       29.99R
CINC-LUNKEN    FAIR      72  69  90 CALM      29.98S
HAMILTON       FAIR      70  68  93 CALM      29.99R
DAYTON         NOT AVBL
WRIGHT-PAT AFB FAIR      75  64  67 CALM      29.99R
DAYTON GENERAL FAIR      76  62  62 CALM      29.99S
WILMINGTON     FAIR      73  65  75 CALM      30.00S
$$

OHZ036-037-039>041-045>050-054>059-063>069-073>076-082>088-260200-
  CENTRAL AND SOUTHEAST OHIO

CITY           SKY/WX    TMP DP  RH WIND       PRES   REMARKS
COLUMBUS       MOCLDY    80  65  59 SE5       30.00R
OSU AIRPORT    FAIR      79  64  60 SE6       30.00R
BOLTON FIELD   NOT AVBL
RICKENBACK AFB NOT AVBL
NEWARK         FAIR      70  67  90 CALM      30.01R
MARION         FAIR      77  62  59 SE7       30.01R
LANCASTER      FAIR      68  65  90 CALM      30.02R
ZANESVILLE     FAIR      73  64  73 CALM      30.02R
NEW PHILLY     FAIR      70  63  78 CALM      30.03R
$$



USA.gov is the U.S. government's official web portal to all federal, state and local government web resources and services.